Regional Weather Roundup
Issued by NWS Upton, NY

Current Version | Previous Version | Text Only | Print | Product List | Glossary On
Versions: 1 2 3 4 5 6 7 8 9 10 11 12 13 14 15 16 17 18 19 20 21 22 23 24 25 26 27 28 29 30 31 32 33 34 35 36 37 38 39 40 41 42 43 44 45 46 47 48 49 50
561 ASUS41 KOKX 231008 RWROKX REGIONAL WEATHER ROUNDUP NATIONAL WEATHER SERVICE NEW YORK NY 600 AM EDT THU MAR 23 2017 NOTE: "FAIR" INDICATES FEW OR NO CLOUDS BELOW 12,000 FEET WITH NO SIGNIFICANT WEATHER AND/OR OBSTRUCTIONS TO VISIBILITY. NYZ071-072-176-178-NJZ106-104-231100- NEW YORK CITY METRO AREA CITY SKY/WX TMP DP RH WIND PRES REMARKS Central Park CLEAR 23 7 50 VRB6 30.54R WCI 16 Wall St Helipt SUNNY 25 10 54 W9 30.55R WCI 15 LaGuardia APRT CLEAR 26 7 44 NW13 30.52R WCI 15 Kennedy INTL CLEAR 24 4 42 NW8 30.54R WCI 15 Breezy Point N/A N/A N/A N/A NW9 N/A Newark/Liberty PTCLDY 23 6 48 W8 30.54R WCI 14 Teterboro PTCLDY 24 7 48 NW13 30.53R WCI 12 $$ NYZ177-179-078>081-231100- LONG ISLAND NEW YORK CITY SKY/WX TMP DP RH WIND PRES REMARKS Jones Beach N/A N/A N/A N/A NW10 N/A Matinecock PT N/A N/A N/A N/A NW12 N/A Farmingdale CLEAR 21 7 54 W6 30.52R WCI 13 MacArthur/ISP CLEAR 22 3 44 NW12 30.50R WCI 10 Shirley CLEAR 21 2 43 NW10 30.51R WCI 10 Westhampton CLEAR 20 -3 36 NW5 30.51R WCI 13 East Hampton N/A 20 -4 33 NW6 30.48R WCI 13 Montauk N/A 23 -2 33 NW10G18 30.48R WCI 12 $$ NYZ052-065-067-231100- HUDSON VALLEY CITY SKY/WX TMP DP RH WIND PRES REMARKS White Plains CLEAR 19 6 57 W3 30.48R Newburgh CLEAR 16 7 67 W9 30.49R WCI 4 Montgomery CLEAR 12 4 70 W6 30.49R WCI 3 Poughkeepsie CLEAR 11 4 73 CALM 30.51R Albany CLEAR 14 0 53 NW7 30.52R WCI 4 $$ NJZ001-105-106-008-010-013-015-019>022-104-231100- NEW JERSEY CITY SKY/WX TMP DP RH WIND PRES REMARKS Newark/Liberty PTCLDY 23 6 48 W8 30.54R WCI 14 Teterboro PTCLDY 24 7 48 NW13 30.53R WCI 12 Caldwell PTCLDY 22 6 50 NW6 30.54R WCI 14 Somerville CLEAR 19 9 65 NW3 30.54R Linden N/A 23 6 48 CALM 30.55R Sussex PTCLDY 18 6 59 VRB3 30.50R Andover N/A 14 6 70 CALM 30.52R Trenton CLEAR 21 7 54 NW6 30.55R WCI 13 Millville CLEAR 21 7 54 N6 30.57R WCI 13 Atlantic City CLEAR 18 4 54 NW6 30.57R WCI 10 Wrightstown CLEAR 20 6 53 W5 30.53R WCI 14 Toms River PTCLDY 14 6 70 W3 30.57R Belmar CLEAR 19 6 57 W6 30.55R WCI 11 $$ PAZ047>061-062-071-231100- EASTERN PENNSYLVANIA CITY SKY/WX TMP DP RH WIND PRES REMARKS Philadelphia CLEAR 24 5 44 NW7 30.59R WCI 16 Allentown CLEAR 21 5 50 W6 30.55R WCI 13 Scranton CLEAR 18 5 57 NW9 30.51R WCI 7 $$ CTZ002-004>006-009-010-012-RIZ004-006-007-MAZ004-011-015-231100- SOUTHERN NEW ENGLAND IN CT CITY SKY/WX TMP DP RH WIND PRES REMARKS Bradley INTL CLEAR 17 -5 37 NW6 30.46R WCI 9 Hartford CLEAR 19 -3 38 NW5 30.48R WCI 12 Danbury CLEAR 19 -1 41 VRB5 30.48R WCI 12 Wtrbury/Oxford CLEAR 16 -2 45 CALM 30.44R Bridgeport CLEAR 20 4 50 W6 30.51R WCI 12 Meriden CLEAR 15 -1 49 CALM 30.48R New Haven CLEAR 21 2 43 W7 30.50R WCI 12 Chester N/A 19 -6 32 W10 30.44R WCI 8 Groton CLEAR 19 -2 39 W6 30.47R WCI 11 Wilimantic CLEAR 16 -1 47 CALM 30.46R IN RI CITY SKY/WX TMP DP RH WIND PRES REMARKS Providence CLEAR 19 -6 33 NW9G17 30.44R WCI 8 Block Island CLEAR 20 0 41 NW9G20 30.46R WCI 9 Westerly CLEAR 18 -3 39 CALM 30.46R IN MA CITY SKY/WX TMP DP RH WIND PRES REMARKS Boston CLEAR 19 -4 36 NW10 30.42R WCI 7 Worcester CLEAR 14 -9 35 NW14G23 30.34R WCI -1 Westfield CLEAR 13 0 56 CALM 30.45R Provincetown CLEAR 21 6 52 NW22G30 30.38R WCI 5 Nantucket CLEAR 20 3 48 NW22G29 30.38R WCI 3 $$ ANZ330-335-338-340-345-350-353-355-231100- COASTAL MARINE OBSERVATIONS STATION/POSITION TIME SKY/WX TEMP WIND PRES VSBY WAVE AIR SEA DIR/SP/G HT/PER (UTC) (F) (DEG/KT/KT) (MB) (MI) (FT/S) NY HARB ENTRANCE 0850 27 41 330/ 14/ 17 1032.7 3/ 4 20 S FIRE ISLAND 0950 27 41 350/ 19/ 23 1032.8 4/ 4 GREAT SOUTH BAY NOT AVBL 23 SSW MONTAUK P 0850 24 42 1031.3 4/ 5 15 E BARNEGAT LI 0930 42 N/A 4/ 5 HUDSON CANYON 0850 30 45 350/ 25/ 29 1030.9 9/ 7 KINGS POINT 0942 25 37 1033.4 EXECUTION ROCKS NOT AVBL CENTRAL LI SOUND 0930 24 340/ 16/ 19 N/A 1/ 4 EASTERN LI SOUND NOT AVBL ROBBINS REEF 0942 24 320/ 11/ 13 1034.2 $$ >>>>>>>>>>>>>>>>>>>>>>>>>>>> KEY <<<<<<<<<<<<<<<<<<<<<<<<<<< > < > SKY/WX - Sky Condition/Present Weather < > TMP - Temperature in Fahrenheit < > DP - Dew Point in Fahrenheit < > RH - Relative Humidity in Percent < > WIND - Direction (from) and Speed in MPH < > PRES - Mean Sea Level Pressure (inches of Hg) < > WCI - Wind Chill Index < > VSB - VISIBILITY IN MILES < > HX - HEAT INDEX < > TC - TEMPERATURE IN CELSIUS < > VRB - VARIABLE WIND DIRECTION < > < >>>>>>>>>>>>>>>>>>>>>>>>>>>> KEY <<<<<<<<<<<<<<<<<<<<<<<<<<<

USA.gov is the U.S. government's official web portal to all federal, state and local government web resources and services.